CZ-6A DEB, 54266

Orbit data source: Space-Track

CZ-6A DEB, 54266 is space debris in SSO originally from a launch on Fri, 11 Nov 2022 UTC launched from the Taiyaun Space Center, China (TSC). Debris objects in space refer to the collection of defunct objects orbiting the Earth. Examples of debris include non-operational satellites, rocket bodies, and fragments generated from explosions, collisions, or faulty payload assembly.

Loading next visibility...
Identifier
54266, 2022-151H
Orbit
SSO
Country
Flag of CNCN / PRC
Related business
Manufacturer
SAST
Mission
Spacecraft
Bus & Motor
Unknown
Mass
Unknown
Launch date (UTC)
2022-11-11 (4 years ago)
Launch vehicle
Unknown
Launch site
Taiyaun Space Center, China (TSC)
Object type
Payload
Rocket body
Debris
Shape & HBR
Unknown shape, 0.1 m
Radar Cross Section
Medium (>0.1 m² and <1 m²)

Expand to show TLE details & history
Last TLE update: 21 hours ago

TLE from 21 hours ago
0 CZ-6A DEB
1 54266U 22151H   26254.06292501 -.00000305  00000-0 -33949-3 0  9999
2 54266  98.9831 113.8410 0409191 208.9487 148.8381 13.33371316186350
Epoch: 2026-09-11T01:30Z
TLE epoch observation values (Epoch: 2026-09-11T01:30:36.720Z)
Latitude
-0.00001°
Longitude
101.09634°
Altitude
1,403.147 km
Speed
7.031 km/s
True Right ascension
07h 35m 21s
True Declination
0° 00' 00"
Sunlit
Object was in daylight at epoch
Visualization orbit readout
Latitude
Unknown
Longitude
Unknown
Altitude
Unknown
Speed
Unknown
Apparent Right ascension
Unknown
Apparent Declination
Unknown
Sunlit
N/A
Visualization observer readout
Local Sidereal Time
15:06:05
Azimuth
Unknown
Elevation
Unknown
Doppler factor
Unknown
Orbital elements
Apogee altitude
1,438.637 km
Perigee altitude
824.074 km
Semi-major axis
7,509.492 km
Eccentricity
0.04092
Inclination
98.9831°
RAAN
113.841°
Arg. of periapsis
208.9487°
True anomaly
151.16191°
Mean anomaly
148.8381°
Eccentric anomaly
150.00999°
Mean motion
3.33524 °/min
Orbital period
107.94 mins
BSTAR
-0.00033949
Loading maneuver chart data...
Computing Atmospheric mass density...
Loading historical data...
Loading historical data...
Loading historical data...
Loading historical data...
Loading historical data...
Loading historical data...
Loading historical data...

Documentation

Showing up to 5 results
|